Вернуться в каталог

STARLINK-3652

АктивенСвязьVLEO
NORAD 51991·PAYLOAD·🇺🇸 United States

Запущен Mar 9, 2022 с Cape Canaveral Space Force Station

Loading…

Ближайшие Пролёты (ближайшие 24 часа)

TLE

СвежийSource: CelesTrak SupGP

Эпоха: Sep 15, 2026, 02:28 UTC

1 51991C 22025AM  26258.10326389 -.00034201  00000+0 -10100-2 0  2584
2 51991  53.1575 253.0071 0001355  83.0393 248.8472 15.34422347    12

Отслеживайте STARLINK-3652 в реальном времени с AllMySat

Download on the App Store